Weather History for CWRA - December, 2012

Change the Weather History Date:

Thursday, December 6, 2012

  Actual Average Record
Temperature  
Mean Temperature 41 °F -  
Max Temperature 45 °F - - ()
Min Temperature 37 °F - - ()
Degree Days  
Heating Degree Days 24    
Moisture  
Dew Point 42 °F    
Average Humidity 99    
Maximum Humidity 100    
Minimum Humidity 98    
Precipitation  
Precipitation 0.35 in - - ()
Sea Level Pressure  
Sea Level Pressure 29.61 in    
Wind  
Wind Speed 12 mph ()    
Max Wind Speed 23 mph    
Max Gust Speed 29 mph    
T = Trace of Precipitation, MM = Missing Value Source: Averaged Metar Reports

Daily Weather History Graph

Daily Weather History Graph

Search for Another Location

Airport or City:

Trip Planner

Search our weather history database for the weather conditions in past years. The results will help you decide how hot, cold, wet, or windy it might be!

Date:

Astronomy

Dec. 06, 2012 Rise Set
Actual Time 7:32 AM NST 4:14 PM NST
Civil Twilight 6:57 AM NST 4:49 PM NST
Nautical Twilight 6:19 AM NST 5:27 PM NST
Astronomical Twilight 5:42 AM NST 6:04 PM NST
Moon No Moon Rise 12:01 PM NST (12/6)
Length of Visible Light 9h 52m
Length of Day
8h 42m
Waning Gibbous, 50% of the Moon is Illuminated
Dec 6
Waning Gibbous
Dec 6
Last Quarter
Dec 13
New
Dec 20
First Quarter
Dec 28
Full

Hourly Weather History & Observations

Time (NST) Temp. Windchill Dew Point Humidity Pressure Visibility Wind Dir Wind Speed Gust Speed Precip Events Conditions
12:30 AM 38.1 °F 29.5 °F 38.1 °F 100% 29.86 in - SW 15.0 mph 20.7 mph N/A   Unknown
1:30 AM 39.2 °F 31.2 °F 39.0 °F 99% 29.84 in - SW 13.8 mph - N/A   Unknown
2:30 AM 39 °F - 39 °F 100% 29.83 in - SSW 11.5 mph - -  
2:30 AM 39.2 °F 32.0 °F 39.0 °F 99% 29.83 in - SSW 11.5 mph - N/A   Unknown
3:30 AM 40.6 °F 34.8 °F 40.5 °F 99% 29.80 in - SSW 9.2 mph - N/A   Unknown
4:30 AM 40.5 °F 31.8 °F 40.3 °F 99% 29.78 in - SSW 17.3 mph - N/A   Unknown
5:30 AM 40 °F - 40 °F 98% 29.77 in - SSW 10.4 mph - -  
5:30 AM 39.6 °F 33.0 °F 39.6 °F 100% 29.77 in - SSW 10.4 mph - N/A   Unknown
6:30 AM 41.9 °F 34.0 °F 41.7 °F 99% 29.73 in - South 16.1 mph 21.9 mph N/A   Unknown
7:30 AM 42.1 °F 34.9 °F 41.9 °F 99% 29.70 in - SSE 13.8 mph 21.9 mph N/A   Unknown
8:30 AM 43 °F - 43 °F 98% 29.68 in - South 19.6 mph - -  
8:30 AM 43.0 °F 34.5 °F 42.6 °F 99% 29.68 in - South 19.6 mph 26.5 mph N/A   Unknown
9:30 AM 43.0 °F 34.5 °F 42.6 °F 99% 29.66 in - South 19.6 mph - N/A   Unknown
10:30 AM 43.0 °F 34.8 °F 42.8 °F 99% 29.63 in - South 18.4 mph - N/A   Unknown
11:30 AM 43 °F - 43 °F 99% 29.57 in - South 18.4 mph - -  
11:30 AM 43.0 °F 34.8 °F 42.8 °F 99% 29.57 in - South 18.4 mph - N/A   Unknown
12:30 PM 43.2 °F 34.0 °F 43.0 °F 99% 29.53 in - South 23.0 mph 28.8 mph N/A   Unknown
1:30 PM 43.2 °F 34.5 °F 43.0 °F 99% 29.50 in - South 20.7 mph - N/A   Unknown
2:30 PM 44 °F - 44 °F 98% 29.50 in - SW 12.7 mph - -  
2:30 PM 43.9 °F 37.5 °F 43.7 °F 99% 29.50 in - SW 12.7 mph 18.4 mph N/A   Unknown
3:30 PM 44.8 °F 41.6 °F 44.6 °F 99% 29.49 in - WSW 5.8 mph - N/A   Unknown
4:30 PM 43.3 °F 37.2 °F 43.3 °F 100% 29.49 in - WSW 11.5 mph - 0.05 in   Unknown
5:30 PM 43 °F - 43 °F 100% 29.49 in - WSW 10.4 mph - -  
5:30 PM 43.2 °F 37.4 °F 43.0 °F 99% 29.49 in - WSW 10.4 mph - 0.07 in   Unknown
6:30 PM 42.8 °F 38.0 °F 42.6 °F 99% 29.49 in - West 8.1 mph - 0.12 in   Unknown
7:30 PM 41.7 °F 39.8 °F 41.5 °F 99% 29.48 in - SSW 3.5 mph - 0.06 in   Unknown
8:30 PM 42 °F - 42 °F 100% 29.49 in - West 5.8 mph - -  
8:30 PM 42.3 °F 38.6 °F 42.1 °F 99% 29.49 in - West 5.8 mph - 0.03 in   Unknown
9:30 PM 43.0 °F 37.7 °F 42.8 °F 99% 29.47 in - West 9.2 mph - N/A   Unknown
10:30 PM 41.7 °F 36.7 °F 41.7 °F 100% 29.47 in - West 8.1 mph - N/A   Unknown
11:30 PM 41.7 °F 36.7 °F 41.5 °F 99% 29.48 in - NW 8.1 mph - 0.03 in   Unknown